Tracking 28052 objects as of 22-Sep-2023
HD Live streaming from Space Station
objects crossing your sky now

AYAME 1 (ECS 1)

Track AYAME 1 (ECS 1) now!
AYAME 1 (ECS 1) is classified as:


NORAD ID: 11261
Int'l Code: 1979-009A
Perigee: 12,650.1 km
Apogee: 34,251.4 km
Inclination: 10.4 °
Period: 854.2 minutes
Semi major axis: 29821 km
RCS: 0.2528 m2 (medium)
Launch date: February 6, 1979
Source: Japan (JPN)
Launch site: TANEGASHIMA SPACE CENTER (TNSTA)
Your satellite tracking list
Your tracking list is empty




NASA's NSSDC Master Catalog

Two Line Element Set (TLE):
1 11261U 79009A   23264.92508687 -.00000107  00000-0  00000+0 0  9996
2 11261  10.4469 356.0777 3621747  30.0002 358.3602  1.68579058159301
Source of the keplerian elements: AFSPC